sat.trackr.live / text

‹ back to catalog

GAOFEN-5 02

NORAD 49122 · 2021-079A

PAYLOAD ACTIVE UNKNOWN

§ Identity

Operator
Country
PRC
Launch date
2021-09-07
Launch site
TAISC
Launch vehicle
Mass (kg)
RCS (m²)

External: N2YO · Heavens-Above · Gunter

§ Orbital elements

Epoch: 2026-05-25T04:43:58.695168Z

Period
98.79 min
Inclination
98.2604°
Eccentricity
0.0002308
Mean motion
14.57679359 rev/d
Perigee alt
699.0 km
Apogee alt
702.3 km
Semi-major
7,078.8 km
B*
3.1721e-5
RAAN
219.6704°
Arg perigee
72.9683°
Mean anomaly
287.1768°
Rev number
25,073

§ Raw data

GAOFEN-5 021 49122U 21079A   26145.19720712  .00000099  00000+0  31721-4 0  99992 49122  98.2604 219.6704 0002308  72.9683 287.1768 14.57679359250738

JSON: /api/v1/satellites/49122 · /tle

For live sub-satellite position, see the globe view (requires WebGL).

§ Visibility from observer

Set your observer location to see the next 7 days of passes ≥ 10°. The values pass through the URL so the page stays shareable.

No JS? Fill the form by hand. The geolocation button needs JavaScript.

§ Radio — SatNOGS DB

ModeDescriptionDownlinkUplink
BPSK S-band telemetry 2.230 GHz

1 transmitter · refreshed weekly from db.satnogs.org